Location: Grand Lay
(47.3253°N, 0.9468°E)
Time: 18:53:10
(UTC+00:00)

NOSS 8 (F) - Pass Details

Date: 18 January 2026
Orbit: 363 x 1535 km, 63.3° (Epoch: 18 February)

Event Time Altitude Azimuth Distance (km) Brightness Sun altitude
Exits shadow 05:41:10 70° 347° (NNW) 430 4.1 -19.2°
Maximum altitude 05:41:28 80° 49° (NE) 414 4.1 -19.1°
Drops below altitude 10° 05:44:54 10° 138° (SE) 1,607 7.9 -18.5°
Sets 05:47:16 0° 139° (SE) 2,626 9.1 -18.1°
